クラーク彗星

71P/Clark (2023)

English version
Home page
Updated on May 16, 2022

---------------------------------------------------------------------

・ プロフィール

・ 写真集

・ 軌道要素

Epoch 2022 Jan. 21.0 TT = JDT 2459600.5
T 2023 Jan. 22.77210 TT                                 Rudenko
q   1.5886610            (2000.0)            P               Q
n   0.17718380     Peri.  209.05727     -0.03253813     +0.98945470
a   3.1394486      Node    59.40245     -0.88240237     +0.03787818
e   0.4939681      Incl.    9.43748     -0.46936907     -0.13980215
P   5.56
From 936 observations 2016 Feb. 12-2022 Feb. 1, mean residual 0".7.
     Nongravitational parameters A1 = +2.38, A2 = +0.3048.

・ 星図

・ 光度変化

        m1 = 7.2 + 5 logΔ + 20.0 log r(t - 30)

---------------------------------------------------------------------

軌道要素はM.P.E.C. 2022-C56に掲載されたものです。
星図はステラナビゲータ Ver.10 (アストロアーツ) で作成したものです。
光度グラフはComet for Windowsで作成したものです。

---------------------------------------------------------------------

Copyright(C) Seiichi Yoshida (comet@aerith.net). All rights reserved.